,,Stat5,,Stat1,,Stat2,,Stat3,,Stat4,,Wind1,,Wind1,
time,status,PA1M_AVG,status,PR1M_SUM,status,RH1M_AVG,status,SR1M_AVG,status,TA1M_AVG,status,W1dAve1m,status,W1sAve1m,
2003-05-12, 00:00:00,VALID,916.343,VALID,0,VALID,99.9748,VALID,0.0849042,VALID,19.8852,VALID,24,VALID,1.06037,
2003-05-12, 00:01:00,VALID,916.34,VALID,0,VALID,99.9774,VALID,0.0849042,VALID,19.8753,VALID,15,VALID,1.07601,
2003-05-12, 00:02:00,VALID,916.344,VALID,0,VALID,99.9774,VALID,0.118866,VALID,19.8949,VALID,10,VALID,1.04746,
2003-05-12, 00:03:00,VALID,916.361,VALID,0,VALID,99.9647,VALID,0.152827,VALID,19.9168,VALID,12,VALID,0.950195,
2003-05-12, 00:04:00,VALID,916.362,VALID,0,VALID,99.9748,VALID,0.0849042,VALID,19.9173,VALID,7,VALID,0.803043,
2003-05-12, 00:05:00,VALID,916.383,VALID,0,VALID,99.9672,VALID,0.118866,VALID,19.9795,VALID,7,VALID,0.934333,
2003-05-12, 00:06:00,VALID,916.41,VALID,0,VALID,99.9723,VALID,0.0849042,VALID,20.0208,VALID,12,VALID,1.2199,
2003-05-12, 00:07:00,VALID,916.425,VALID,0,VALID,99.9697,VALID,0.0849042,VALID,20.0108,VALID,5,VALID,1.04345,
2003-05-12, 00:08:00,VALID,916.448,VALID,0,VALID,99.9659,VALID,0.0679233,VALID,20.066,VALID,357,VALID,1.18418,
2003-05-12, 00:09:00,VALID,916.443,VALID,0,VALID,99.9786,VALID,0.101885,VALID,20.1116,VALID,357,VALID,0.957981,
2003-05-12, 00:10:00,VALID,916.445,VALID,0,VALID,99.9608,VALID,0.0849042,VALID,20.1215,VALID,357,VALID,1.05089,
2003-05-12, 00:11:00,VALID,916.43,VALID,0,VALID,99.9685,VALID,0.0849042,VALID,20.1539,VALID,345,VALID,0.725977,
2003-05-12, 00:12:00,VALID,916.392,VALID,0,VALID,99.957,VALID,0.135847,VALID,20.169,VALID,277,VALID,0.479818,
2003-05-12, 00:13:00,VALID,916.392,VALID,0,VALID,99.9494,VALID,0.169808,VALID,20.1593,VALID,278,VALID,0.27433,
2003-05-12, 00:14:00,VALID,916.365,VALID,0,VALID,99.943,VALID,0.101885,VALID,20.1078,VALID,312,VALID,0.211739,
2003-05-12, 00:15:00,VALID,916.346,VALID,0,VALID,99.9392,VALID,0.0509425,VALID,20.0919,VALID,318,VALID,0.153952,
2003-05-12, 00:16:00,VALID,916.293,VALID,0,VALID,99.9354,VALID,0.135847,VALID,20.0917,VALID,20,VALID,0.190625,
2003-05-12, 00:17:00,VALID,916.259,VALID,0,VALID,99.9354,VALID,0.118866,VALID,20.0817,VALID,57,VALID,0.193164,
2003-05-12, 00:18:00,VALID,916.227,VALID,0,VALID,99.9227,VALID,0.135847,VALID,20.0267,VALID,20,VALID,0.50067,
2003-05-12, 00:19:00,VALID,916.196,VALID,0,VALID,99.9176,VALID,0.135847,VALID,20.0397,VALID,16,VALID,0.521599,
2003-05-12, 00:20:00,VALID,916.172,VALID,0,VALID,99.9214,VALID,0.135847,VALID,20.0173,VALID,19,VALID,0.11287,
2003-05-12, 00:21:00,VALID,916.174,VALID,0,VALID,99.9138,VALID,0.0849042,VALID,20.0011,VALID,19,VALID,0.0160714,
2003-05-12, 00:22:00,VALID,916.177,VALID,0,VALID,99.9201,VALID,0.152827,VALID,19.9855,VALID,19,VALID,0,
2003-05-12, 00:23:00,VALID,916.181,VALID,0,VALID,99.91,VALID,0.0849042,VALID,19.9588,VALID,20,VALID,0.152444,
2003-05-12, 00:24:00,VALID,916.184,VALID,0,VALID,99.8947,VALID,0.0509425,VALID,19.9108,VALID,29,VALID,0.612592,
2003-05-12, 00:25:00,VALID,916.176,VALID,0,VALID,99.8871,VALID,0.152827,VALID,19.872,VALID,9,VALID,1.10982,
2003-05-12, 00:26:00,VALID,916.16,VALID,0,VALID,99.9049,VALID,0.101885,VALID,19.9685,VALID,18,VALID,1.48867,
2003-05-12, 00:27:00,VALID,916.162,VALID,0,VALID,99.9252,VALID,0.135847,VALID,19.9974,VALID,19,VALID,1.42366,
2003-05-12, 00:28:00,VALID,916.151,VALID,0,VALID,99.9379,VALID,0.152827,VALID,20.0332,VALID,22,VALID,1.19072,
2003-05-12, 00:29:00,VALID,916.133,VALID,0,VALID,99.9392,VALID,0.135847,VALID,20.0429,VALID,7,VALID,0.808594,
2003-05-12, 00:30:00,VALID,916.122,VALID,0,VALID,99.9329,VALID,0.118866,VALID,20.066,VALID,4,VALID,0.868973,
2003-05-12, 00:31:00,VALID,916.096,VALID,0,VALID,99.9303,VALID,0.152827,VALID,20.0882,VALID,8,VALID,0.892187,
2003-05-12, 00:32:00,VALID,916.07,VALID,0,VALID,99.9265,VALID,0.135847,VALID,20.1081,VALID,6,VALID,0.943309,
2003-05-12, 00:33:00,VALID,916.053,VALID,0,VALID,99.9163,VALID,0.0849042,VALID,20.0658,VALID,2,VALID,0.546186,
2003-05-12, 00:34:00,VALID,916.032,VALID,0,VALID,99.8973,VALID,0.20377,VALID,20.0782,VALID,352,VALID,0.377679,
2003-05-12, 00:35:00,VALID,916.003,VALID,0,VALID,99.8922,VALID,0.135847,VALID,20.0588,VALID,2,VALID,0.652148,
2003-05-12, 00:36:00,VALID,915.992,VALID,0,VALID,99.8795,VALID,0.152827,VALID,20.0422,VALID,7,VALID,0.740402,
2003-05-12, 00:37:00,VALID,915.977,VALID,0,VALID,99.8616,VALID,0.20377,VALID,19.9974,VALID,17,VALID,0.859375,
2003-05-12, 00:38:00,VALID,915.964,VALID,0,VALID,99.8235,VALID,0.152827,VALID,19.9588,VALID,21,VALID,0.740748,
2003-05-12, 00:39:00,VALID,915.948,VALID,0,VALID,99.807,VALID,0.0849042,VALID,19.8932,VALID,21,VALID,0.858705,
2003-05-12, 00:40:00,VALID,915.932,VALID,0,VALID,99.793,VALID,0.169808,VALID,19.8999,VALID,23,VALID,0.533259,
2003-05-12, 00:41:00,VALID,915.941,VALID,0,VALID,99.7841,VALID,0.152827,VALID,19.8778,VALID,23,VALID,0.622196,
2003-05-12, 00:42:00,VALID,915.925,VALID,0,VALID,99.7955,VALID,0.101885,VALID,19.8584,VALID,22,VALID,0.756893,
2003-05-12, 00:43:00,VALID,915.923,VALID,0,VALID,99.8121,VALID,0.152827,VALID,19.8745,VALID,23,VALID,0.741741,
2003-05-12, 00:44:00,VALID,915.939,VALID,0,VALID,99.8311,VALID,0.118866,VALID,19.8949,VALID,10,VALID,0.84043,
2003-05-12, 00:45:00,VALID,915.943,VALID,0,VALID,99.8667,VALID,0.118866,VALID,19.9855,VALID,7,VALID,0.554018,
2003-05-12, 00:46:00,VALID,915.923,VALID,0,VALID,99.8985,VALID,0.186789,VALID,20.0461,VALID,5,VALID,0.376838,
2003-05-12, 00:47:00,VALID,915.915,VALID,0,VALID,99.9049,VALID,0.101885,VALID,20.1108,VALID,341,VALID,0.225123,
2003-05-12, 00:48:00,VALID,915.919,VALID,0,VALID,99.9201,VALID,0.118866,VALID,20.166,VALID,341,VALID,0.42433,
2003-05-12, 00:49:00,VALID,915.89,VALID,0,VALID,99.9138,VALID,0.186789,VALID,20.1658,VALID,359,VALID,0.551786,
2003-05-12, 00:50:00,VALID,915.861,VALID,0,VALID,99.9151,VALID,0.118866,VALID,20.1369,VALID,3,VALID,0.399639,
2003-05-12, 00:51:00,VALID,915.818,VALID,0,VALID,99.9087,VALID,0.101885,VALID,20.1404,VALID,11,VALID,0.356388,
2003-05-12, 00:52:00,VALID,915.811,VALID,0,VALID,99.8934,VALID,0.169808,VALID,20.1103,VALID,15,VALID,0.536161,
2003-05-12, 00:53:00,VALID,915.811,VALID,0,VALID,99.8807,VALID,0.135847,VALID,20.121,VALID,12,VALID,0.638477,
2003-05-12, 00:54:00,VALID,915.84,VALID,0,VALID,99.8744,VALID,0.135847,VALID,20.0496,VALID,5,VALID,0.533705,
2003-05-12, 00:55:00,VALID,915.861,VALID,0,VALID,99.8578,VALID,0.135847,VALID,20.0588,VALID,10,VALID,0.45841,
2003-05-12, 00:56:00,VALID,915.849,VALID,0,VALID,99.8451,VALID,0.135847,VALID,20.021,VALID,17,VALID,0.58676,
2003-05-12, 00:57:00,VALID,915.824,VALID,0,VALID,99.8324,VALID,0.0509425,VALID,19.9949,VALID,21,VALID,0.73817,
2003-05-12, 00:58:00,VALID,915.812,VALID,0,VALID,99.8413,VALID,0.152827,VALID,20.0141,VALID,26,VALID,0.610491,
2003-05-12, 00:59:00,VALID,915.785,VALID,0,VALID,99.8553,VALID,0.152827,VALID,20.0434,VALID,48,VALID,0.44972,
2003-05-12, 01:00:00,VALID,915.791,VALID,0,VALID,99.8655,VALID,0.101885,VALID,20.0561,VALID,48,VALID,0.335708,
2003-05-12, 01:01:00,VALID,915.792,VALID,0,VALID,99.8591,VALID,0.169808,VALID,20.0496,VALID,46,VALID,0.289063,
2003-05-12, 01:02:00,VALID,915.788,VALID,0,VALID,99.8591,VALID,0.0849042,VALID,20.0499,VALID,46,VALID,0.0960938,
2003-05-12, 01:03:00,VALID,915.772,VALID,0,VALID,99.8553,VALID,0.152827,VALID,20.0205,VALID,46,VALID,0.0256696,
2003-05-12, 01:04:00,VALID,915.741,VALID,0,VALID,99.8375,VALID,0.152827,VALID,19.9685,VALID,27,VALID,0.472656,
2003-05-12, 01:05:00,VALID,915.705,VALID,0,VALID,99.8108,VALID,0.101885,VALID,19.9041,VALID,23,VALID,0.560444,
2003-05-12, 01:06:00,VALID,915.669,VALID,0,VALID,99.8006,VALID,0.118866,VALID,19.8877,VALID,24,VALID,0.599554,
2003-05-12, 01:07:00,VALID,915.641,VALID,0,VALID,99.7879,VALID,0.186789,VALID,19.8293,VALID,13,VALID,0.648884,
2003-05-12, 01:08:00,VALID,915.614,VALID,0,VALID,99.8006,VALID,0.135847,VALID,19.8203,VALID,7,VALID,0.53766,
2003-05-12, 01:09:00,VALID,915.604,VALID,0,VALID,99.8146,VALID,0.101885,VALID,19.8198,VALID,7,VALID,0.542739,
2003-05-12, 01:10:00,VALID,915.578,VALID,0,VALID,99.8413,VALID,0.186789,VALID,19.8554,VALID,3,VALID,0.554464,
2003-05-12, 01:11:00,VALID,915.553,VALID,0,VALID,99.8731,VALID,0.152827,VALID,19.881,VALID,6,VALID,0.57168,
2003-05-12, 01:12:00,VALID,915.506,VALID,0,VALID,99.8871,VALID,0.118866,VALID,19.9131,VALID,9,VALID,0.603125,
2003-05-12, 01:13:00,VALID,915.504,VALID,0,VALID,99.8998,VALID,0.20377,VALID,19.9392,VALID,9,VALID,0.408778,
2003-05-12, 01:14:00,VALID,915.505,VALID,0,VALID,99.9074,VALID,0.118866,VALID,19.9524,VALID,9,VALID,0.573396,
2003-05-12, 01:15:00,VALID,915.513,VALID,0,VALID,99.91,VALID,0.118866,VALID,19.9362,VALID,9,VALID,0.706027,
2003-05-12, 01:16:00,VALID,915.514,VALID,0.2,VALID,99.9138,VALID,0.186789,VALID,19.933,VALID,11,VALID,0.833036,
2003-05-12, 01:17:00,VALID,915.52,VALID,0,VALID,99.8884,VALID,0.135847,VALID,19.8427,VALID,17,VALID,0.776643,
2003-05-12, 01:18:00,VALID,915.507,VALID,0,VALID,99.8833,VALID,0.118866,VALID,19.823,VALID,17,VALID,0.813189,
2003-05-12, 01:19:00,VALID,915.479,VALID,0,VALID,99.8744,VALID,0.169808,VALID,19.8071,VALID,25,VALID,0.896875,
2003-05-12, 01:20:00,VALID,915.466,VALID,0,VALID,99.8693,VALID,0.152827,VALID,19.7589,VALID,28,VALID,0.938086,
2003-05-12, 01:21:00,VALID,915.463,VALID,0,VALID,99.8769,VALID,0.118866,VALID,19.7716,VALID,20,VALID,1.00022,
2003-05-12, 01:22:00,VALID,915.455,VALID,0,VALID,99.8998,VALID,0.186789,VALID,19.8196,VALID,21,VALID,0.850873,
2003-05-12, 01:23:00,VALID,915.451,VALID,0,VALID,99.91,VALID,0.152827,VALID,19.8106,VALID,21,VALID,0.676604,
2003-05-12, 01:24:00,VALID,915.432,VALID,0,VALID,99.9138,VALID,0.152827,VALID,19.8168,VALID,21,VALID,0.634375,
2003-05-12, 01:25:00,VALID,915.403,VALID,0,VALID,99.9303,VALID,0.135847,VALID,19.8407,VALID,21,VALID,0.457366,
2003-05-12, 01:26:00,VALID,915.374,VALID,0,VALID,99.9418,VALID,0.0339617,VALID,19.8375,VALID,21,VALID,0.514022,
2003-05-12, 01:27:00,VALID,915.345,VALID,0,VALID,99.929,VALID,0.0169808,VALID,19.8477,VALID,21,VALID,0.464154,
2003-05-12, 01:28:00,VALID,915.326,VALID,0,VALID,99.9456,VALID,0.0849042,VALID,19.8536,VALID,21,VALID,0.490848,
2003-05-12, 01:29:00,VALID,915.317,VALID,0,VALID,99.9392,VALID,0.0679233,VALID,19.8345,VALID,21,VALID,0.449023,
2003-05-12, 01:30:00,VALID,915.316,VALID,0,VALID,99.9418,VALID,0.0509425,VALID,19.8213,VALID,13,VALID,0.685714,
2003-05-12, 01:31:00,VALID,915.316,VALID,0,VALID,99.9443,VALID,0.0509425,VALID,19.893,VALID,10,VALID,0.521369,
2003-05-12, 01:32:00,VALID,915.313,VALID,0,VALID,99.9545,VALID,0.0339617,VALID,19.9447,VALID,10,VALID,0.463816,
2003-05-12, 01:33:00,VALID,915.291,VALID,0,VALID,99.9634,VALID,0.0339617,VALID,20.0121,VALID,9,VALID,0.592411,
2003-05-12, 01:34:00,VALID,915.255,VALID,0,VALID,99.9634,VALID,0.0679233,VALID,20.032,VALID,9,VALID,0.685045,
2003-05-12, 01:35:00,VALID,915.219,VALID,0,VALID,99.9697,VALID,0.0339617,VALID,20.0031,VALID,10,VALID,0.893229,
2003-05-12, 01:36:00,VALID,915.222,VALID,0,VALID,99.9621,VALID,0,VALID,19.9643,VALID,9,VALID,0.782169,
2003-05-12, 01:37:00,VALID,915.249,VALID,0,VALID,99.9532,VALID,0.0849042,VALID,19.9601,VALID,359,VALID,0.772321,
2003-05-12, 01:38:00,VALID,915.271,VALID,0,VALID,99.9634,VALID,0.0339617,VALID,20.0283,VALID,334,VALID,0.723242,
2003-05-12, 01:39:00,VALID,915.273,VALID,0,VALID,99.9481,VALID,0.0169808,VALID,20.0934,VALID,335,VALID,0.204688,
2003-05-12, 01:40:00,VALID,915.262,VALID,0,VALID,99.9672,VALID,0.0679233,VALID,20.1059,VALID,335,VALID,0,
2003-05-12, 01:41:00,VALID,915.248,VALID,0,VALID,99.9621,VALID,0.0169808,VALID,20.0902,VALID,335,VALID,0.0250822,
2003-05-12, 01:42:00,VALID,915.225,VALID,0,VALID,99.9621,VALID,0,VALID,20.0643,VALID,19,VALID,0.304018,
2003-05-12, 01:43:00,VALID,915.211,VALID,0,VALID,99.9748,VALID,0.0339617,VALID,20.1191,VALID,35,VALID,0.420536,
2003-05-12, 01:44:00,VALID,915.192,VALID,0,VALID,99.9672,VALID,0.0339617,VALID,20.1288,VALID,42,VALID,0.0771234,
2003-05-12, 01:45:00,VALID,915.195,VALID,0,VALID,99.9634,VALID,0.0339617,VALID,20.132,VALID,27,VALID,0.352941,
2003-05-12, 01:46:00,VALID,915.2,VALID,0,VALID,99.9596,VALID,0.0679233,VALID,20.1096,VALID,21,VALID,0.510045,
2003-05-12, 01:47:00,VALID,915.193,VALID,0,VALID,99.9189,VALID,0.0509425,VALID,19.9959,VALID,17,VALID,0.423047,
2003-05-12, 01:48:00,VALID,915.206,VALID,0,VALID,99.9201,VALID,0,VALID,19.9992,VALID,15,VALID,0.284152,
2003-05-12, 01:49:00,VALID,915.224,VALID,0,VALID,99.9214,VALID,0.0679233,VALID,20.035,VALID,15,VALID,0.267463,
2003-05-12, 01:50:00,VALID,915.253,VALID,0,VALID,99.9265,VALID,-0.0169808,VALID,20.0352,VALID,15,VALID,0.371299,
2003-05-12, 01:51:00,VALID,915.268,VALID,0,VALID,99.9125,VALID,-0.0169808,VALID,20.0255,VALID,15,VALID,0.502679,
2003-05-12, 01:52:00,VALID,915.273,VALID,0,VALID,99.8947,VALID,0.0169808,VALID,19.9768,VALID,15,VALID,0.432589,
2003-05-12, 01:53:00,VALID,915.25,VALID,0,VALID,99.8769,VALID,0.0339617,VALID,19.9576,VALID,15,VALID,0.229768,
2003-05-12, 01:54:00,VALID,915.221,VALID,0,VALID,99.8833,VALID,0,VALID,19.9643,VALID,15,VALID,0.170956,
2003-05-12, 01:55:00,VALID,915.203,VALID,0,VALID,99.8896,VALID,0.135847,VALID,19.9792,VALID,15,VALID,0,
2003-05-12, 01:56:00,VALID,915.203,VALID,0,VALID,99.8807,VALID,0.101885,VALID,19.9957,VALID,15,VALID,0,
2003-05-12, 01:57:00,VALID,915.186,VALID,0,VALID,99.8922,VALID,0.0849042,VALID,20.0118,VALID,15,VALID,0,
2003-05-12, 01:58:00,VALID,915.174,VALID,0,VALID,99.9062,VALID,0.186789,VALID,20.0205,VALID,15,VALID,0.00183824,
2003-05-12, 01:59:00,VALID,915.167,VALID,0,VALID,99.9151,VALID,0.135847,VALID,20.0499,VALID,15,VALID,0.00822368,
2003-05-12, 02:00:00,VALID,915.174,VALID,0,VALID,99.9303,VALID,0.0849042,VALID,20.0663,VALID,15,VALID,0.142857,
2003-05-12, 02:01:00,VALID,915.171,VALID,0,VALID,99.9163,VALID,0.135847,VALID,20.0693,VALID,30,VALID,0.28192,
2003-05-12, 02:02:00,VALID,915.187,VALID,0,VALID,99.9265,VALID,0.0679233,VALID,20.0922,VALID,52,VALID,0.453125,
2003-05-12, 02:03:00,VALID,915.159,VALID,0,VALID,99.9214,VALID,0.0679233,VALID,20.1016,VALID,69,VALID,0.569393,
2003-05-12, 02:04:00,VALID,915.119,VALID,0,VALID,99.8845,VALID,0.118866,VALID,20.0049,VALID,39,VALID,0.598214,
2003-05-12, 02:05:00,VALID,915.073,VALID,0,VALID,99.8184,VALID,0.0679233,VALID,19.9046,VALID,60,VALID,0.0446135,
2003-05-12, 02:06:00,VALID,915.073,VALID,0,VALID,99.7892,VALID,0.0849042,VALID,19.8725,VALID,60,VALID,0.0645089,
2003-05-12, 02:07:00,VALID,915.043,VALID,0,VALID,99.7714,VALID,0.135847,VALID,19.8106,VALID,72,VALID,0.494256,
2003-05-12, 02:08:00,VALID,915.014,VALID,0,VALID,99.7943,VALID,0.101885,VALID,19.8143,VALID,100,VALID,0.507607,
2003-05-12, 02:09:00,VALID,914.982,VALID,0,VALID,99.7943,VALID,0.0509425,VALID,19.8009,VALID,106,VALID,0.284375,
2003-05-12, 02:10:00,VALID,914.961,VALID,0,VALID,99.7981,VALID,0.169808,VALID,19.7845,VALID,106,VALID,0.221205,
2003-05-12, 02:11:00,VALID,914.948,VALID,0,VALID,99.8044,VALID,0.135847,VALID,19.7845,VALID,106,VALID,0.188902,
2003-05-12, 02:12:00,VALID,914.919,VALID,0,VALID,99.8197,VALID,0.101885,VALID,19.7917,VALID,106,VALID,0.157629,
2003-05-12, 02:13:00,VALID,914.917,VALID,0,VALID,99.8451,VALID,0.169808,VALID,19.8041,VALID,106,VALID,0.266964,
2003-05-12, 02:14:00,VALID,914.909,VALID,0,VALID,99.8655,VALID,0.101885,VALID,19.8206,VALID,109,VALID,0.357617,
2003-05-12, 02:15:00,VALID,914.894,VALID,0,VALID,99.8718,VALID,0.0849042,VALID,19.827,VALID,111,VALID,0.237054,
2003-05-12, 02:16:00,VALID,914.88,VALID,0,VALID,99.8896,VALID,0.135847,VALID,19.8265,VALID,111,VALID,0.200597,
2003-05-12, 02:17:00,VALID,914.876,VALID,0,VALID,99.9011,VALID,0.101885,VALID,19.8497,VALID,111,VALID,0.00740132,
2003-05-12, 02:18:00,VALID,914.881,VALID,0,VALID,99.9087,VALID,0.101885,VALID,19.8526,VALID,111,VALID,0,
2003-05-12, 02:19:00,VALID,914.875,VALID,0,VALID,99.896,VALID,0.118866,VALID,19.8429,VALID,111,VALID,0.00848214,
2003-05-12, 02:20:00,VALID,914.871,VALID,0,VALID,99.8744,VALID,0.135847,VALID,19.7753,VALID,111,VALID,0.221955,
2003-05-12, 02:21:00,VALID,914.868,VALID,0,VALID,99.854,VALID,0.101885,VALID,19.7338,VALID,111,VALID,0.0597426,
2003-05-12, 02:22:00,VALID,914.855,VALID,0,VALID,99.854,VALID,0.135847,VALID,19.6942,VALID,111,VALID,0.0107143,
2003-05-12, 02:23:00,VALID,914.815,VALID,0,VALID,99.8655,VALID,0.118866,VALID,19.6785,VALID,111,VALID,0.000390625,
2003-05-12, 02:24:00,VALID,914.789,VALID,0,VALID,99.8578,VALID,0.0849042,VALID,19.6596,VALID,111,VALID,0.179688,
2003-05-12, 02:25:00,VALID,914.778,VALID,0,VALID,99.8642,VALID,0.118866,VALID,19.6328,VALID,111,VALID,0.0836397,
2003-05-12, 02:26:00,VALID,914.775,VALID,0,VALID,99.896,VALID,0.0509425,VALID,19.6358,VALID,111,VALID,0.304071,
2003-05-12, 02:27:00,VALID,914.775,VALID,0,VALID,99.8947,VALID,0.0509425,VALID,19.6368,VALID,95,VALID,0.497768,
2003-05-12, 02:28:00,VALID,914.762,VALID,0,VALID,99.9176,VALID,0.118866,VALID,19.6169,VALID,82,VALID,0.737277,
2003-05-12, 02:29:00,VALID,914.743,VALID,0,VALID,99.9659,VALID,0.118866,VALID,19.7076,VALID,83,VALID,1.01563,
2003-05-12, 02:30:00,VALID,914.711,VALID,0,VALID,99.9964,VALID,0.0509425,VALID,19.8497,VALID,86,VALID,1.04642,
2003-05-12, 02:31:00,VALID,914.69,VALID,0,VALID,100,VALID,0.101885,VALID,19.9501,VALID,91,VALID,0.919196,
2003-05-12, 02:32:00,VALID,914.678,VALID,0,VALID,99.9954,VALID,0.0849042,VALID,19.9954,VALID,93,VALID,0.693164,
2003-05-12, 02:33:00,VALID,914.671,VALID,0,VALID,99.9786,VALID,0.101885,VALID,20.0016,VALID,94,VALID,0.763393,
2003-05-12, 02:34:00,VALID,914.666,VALID,0,VALID,99.9748,VALID,0.152827,VALID,19.9986,VALID,94,VALID,0.740349,
2003-05-12, 02:35:00,VALID,914.652,VALID,0,VALID,99.9596,VALID,0.101885,VALID,20.0143,VALID,94,VALID,0.893298,
2003-05-12, 02:36:00,VALID,914.671,VALID,0,VALID,99.9354,VALID,0.0849042,VALID,20.0536,VALID,94,VALID,0.818973,
2003-05-12, 02:37:00,VALID,914.68,VALID,0,VALID,99.9151,VALID,0.118866,VALID,20.0407,VALID,92,VALID,0.396652,
2003-05-12, 02:38:00,VALID,914.719,VALID,0,VALID,99.8235,VALID,0.0679233,VALID,19.9337,VALID,92,VALID,0.259816,
2003-05-12, 02:39:00,VALID,914.75,VALID,0,VALID,99.6874,VALID,0.0679233,VALID,19.8335,VALID,92,VALID,0.289522,
2003-05-12, 02:40:00,VALID,914.762,VALID,0,VALID,99.5641,VALID,0.101885,VALID,19.7362,VALID,92,VALID,0.362946,
2003-05-12, 02:41:00,VALID,914.793,VALID,0,VALID,99.6188,VALID,0.101885,VALID,19.7039,VALID,92,VALID,0.542969,
2003-05-12, 02:42:00,VALID,914.799,VALID,0,VALID,99.6646,VALID,0.101885,VALID,19.7171,VALID,94,VALID,0.393973,
2003-05-12, 02:43:00,VALID,914.794,VALID,0,VALID,99.6544,VALID,0.118866,VALID,19.6977,VALID,103,VALID,0.391544,
2003-05-12, 02:44:00,VALID,914.77,VALID,0,VALID,99.7014,VALID,0.0679233,VALID,19.6845,VALID,107,VALID,0.519737,
2003-05-12, 02:45:00,VALID,914.759,VALID,0,VALID,99.7777,VALID,0.0679233,VALID,19.7427,VALID,107,VALID,0.599554,
2003-05-12, 02:46:00,VALID,914.743,VALID,0,VALID,99.807,VALID,0.169808,VALID,19.782,VALID,95,VALID,0.622098,
2003-05-12, 02:47:00,VALID,914.761,VALID,0,VALID,99.807,VALID,0.101885,VALID,19.7619,VALID,85,VALID,0.764022,
2003-05-12, 02:48:00,VALID,914.759,VALID,0,VALID,99.8248,VALID,0.101885,VALID,19.7716,VALID,86,VALID,0.853401,
2003-05-12, 02:49:00,VALID,914.752,VALID,0,VALID,99.8438,VALID,0.169808,VALID,19.8074,VALID,96,VALID,0.748214,
2003-05-12, 02:50:00,VALID,914.735,VALID,0,VALID,99.8667,VALID,0.101885,VALID,19.8499,VALID,105,VALID,0.816797,
2003-05-12, 02:51:00,VALID,914.732,VALID,0,VALID,99.8744,VALID,0.0849042,VALID,19.8753,VALID,104,VALID,0.667411,
2003-05-12, 02:52:00,VALID,914.734,VALID,0,VALID,99.8629,VALID,0.135847,VALID,19.8653,VALID,102,VALID,0.582031,
2003-05-12, 02:53:00,VALID,914.738,VALID,0,VALID,99.8413,VALID,0.101885,VALID,19.8658,VALID,102,VALID,0.324013,
2003-05-12, 02:54:00,VALID,914.757,VALID,0,VALID,99.7904,VALID,0.0679233,VALID,19.8273,VALID,102,VALID,0.0482143,
2003-05-12, 02:55:00,VALID,914.76,VALID,0,VALID,99.7777,VALID,0.118866,VALID,19.7939,VALID,102,VALID,0.207813,
2003-05-12, 02:56:00,VALID,914.748,VALID,0,VALID,99.7548,VALID,0.0849042,VALID,19.7591,VALID,102,VALID,0.326322,
2003-05-12, 02:57:00,VALID,914.728,VALID,0,VALID,99.737,VALID,0.0849042,VALID,19.7365,VALID,102,VALID,0.265855,
2003-05-12, 02:58:00,VALID,914.714,VALID,0,VALID,99.7396,VALID,0.152827,VALID,19.7104,VALID,104,VALID,0.359152,
2003-05-12, 02:59:00,VALID,914.677,VALID,0,VALID,99.7256,VALID,0.135847,VALID,19.691,VALID,106,VALID,0.313672,
2003-05-12, 03:00:00,VALID,914.66,VALID,0,VALID,99.69,VALID,0.0849042,VALID,19.6557,VALID,106,VALID,0.18125,
2003-05-12, 03:01:00,VALID,914.647,VALID,0,VALID,99.6633,VALID,0.169808,VALID,19.6074,VALID,106,VALID,0.151654,
2003-05-12, 03:02:00,VALID,914.655,VALID,0,VALID,99.69,VALID,0.0679233,VALID,19.5681,VALID,107,VALID,0.316406,
2003-05-12, 03:03:00,VALID,914.65,VALID,0,VALID,99.6862,VALID,0.101885,VALID,19.5261,VALID,101,VALID,0.581027,
2003-05-12, 03:04:00,VALID,914.633,VALID,0,VALID,99.7587,VALID,0.152827,VALID,19.5356,VALID,95,VALID,0.749107,
2003-05-12, 03:05:00,VALID,914.625,VALID,0,VALID,99.8553,VALID,0.135847,VALID,19.5843,VALID,95,VALID,0.856771,
2003-05-12, 03:06:00,VALID,914.568,VALID,0,VALID,99.9214,VALID,0.0849042,VALID,19.6818,VALID,99,VALID,1.04733,
2003-05-12, 03:07:00,VALID,914.533,VALID,0,VALID,99.9405,VALID,0.118866,VALID,19.7201,VALID,100,VALID,1.02076,
2003-05-12, 03:08:00,VALID,914.493,VALID,0,VALID,99.9443,VALID,0.118866,VALID,19.743,VALID,94,VALID,0.948828,
2003-05-12, 03:09:00,VALID,914.465,VALID,0,VALID,99.9481,VALID,0.0849042,VALID,19.7753,VALID,100,VALID,1.25804,
2003-05-12, 03:10:00,VALID,914.436,VALID,0,VALID,99.943,VALID,0.152827,VALID,19.7912,VALID,111,VALID,1.125,
2003-05-12, 03:11:00,VALID,914.442,VALID,0,VALID,99.9316,VALID,0.101885,VALID,19.7887,VALID,112,VALID,0.847451,
2003-05-12, 03:12:00,VALID,914.439,VALID,0,VALID,99.9049,VALID,0.101885,VALID,19.7522,VALID,124,VALID,0.666295,
2003-05-12, 03:13:00,VALID,914.427,VALID,0,VALID,99.8896,VALID,0.152827,VALID,19.7362,VALID,122,VALID,0.973214,
2003-05-12, 03:14:00,VALID,914.417,VALID,0,VALID,99.8655,VALID,0.0679233,VALID,19.7201,VALID,127,VALID,0.895433,
2003-05-12, 03:15:00,VALID,914.404,VALID,0,VALID,99.8667,VALID,0.0339617,VALID,19.7176,VALID,124,VALID,0.872243,
2003-05-12, 03:16:00,VALID,914.414,VALID,0,VALID,99.8616,VALID,0.152827,VALID,19.7273,VALID,123,VALID,0.638839,
2003-05-12, 03:17:00,VALID,914.428,VALID,0,VALID,99.8502,VALID,0.118866,VALID,19.7044,VALID,145,VALID,0.65,
2003-05-12, 03:18:00,VALID,914.412,VALID,0,VALID,99.8464,VALID,0.135847,VALID,19.7012,VALID,131,VALID,0.795759,
2003-05-12, 03:19:00,VALID,914.4,VALID,0,VALID,99.8477,VALID,0.135847,VALID,19.6982,VALID,136,VALID,0.845129,
2003-05-12, 03:20:00,VALID,914.384,VALID,0,VALID,99.8591,VALID,0.101885,VALID,19.691,VALID,139,VALID,0.934416,
2003-05-12, 03:21:00,VALID,914.386,VALID,0,VALID,99.8515,VALID,0.0849042,VALID,19.6751,VALID,134,VALID,0.714286,
2003-05-12, 03:22:00,VALID,914.381,VALID,0,VALID,99.8629,VALID,0.152827,VALID,19.6624,VALID,133,VALID,0.683929,
2003-05-12, 03:23:00,VALID,914.387,VALID,0,VALID,99.8591,VALID,0.118866,VALID,19.6452,VALID,134,VALID,0.848558,
2003-05-12, 03:24:00,VALID,914.371,VALID,0,VALID,99.8655,VALID,0.0679233,VALID,19.643,VALID,147,VALID,1.18727,
2003-05-12, 03:25:00,VALID,914.388,VALID,0,VALID,99.8616,VALID,0.152827,VALID,19.6231,VALID,150,VALID,1.13772,
2003-05-12, 03:26:00,VALID,914.396,VALID,0,VALID,99.8591,VALID,0.101885,VALID,19.6044,VALID,142,VALID,0.925,
2003-05-12, 03:27:00,VALID,914.436,VALID,0,VALID,99.8693,VALID,0.118866,VALID,19.5748,VALID,138,VALID,0.608482,
2003-05-12, 03:28:00,VALID,914.474,VALID,0,VALID,99.8922,VALID,0.135847,VALID,19.5684,VALID,149,VALID,0.873162,
2003-05-12, 03:29:00,VALID,914.501,VALID,0,VALID,99.8998,VALID,0.135847,VALID,19.5617,VALID,141,VALID,0.639186,
2003-05-12, 03:30:00,VALID,914.508,VALID,0,VALID,99.9087,VALID,0.101885,VALID,19.5587,VALID,124,VALID,0.898214,
2003-05-12, 03:31:00,VALID,914.506,VALID,0,VALID,99.9443,VALID,0.135847,VALID,19.5848,VALID,101,VALID,0.876339,
2003-05-12, 03:32:00,VALID,914.489,VALID,0,VALID,99.9672,VALID,0.0679233,VALID,19.6116,VALID,102,VALID,1.12139,
2003-05-12, 03:33:00,VALID,914.481,VALID,0,VALID,99.9774,VALID,-0.0339617,VALID,19.6248,VALID,89,VALID,1.06733,
2003-05-12, 03:34:00,VALID,914.484,VALID,0,VALID,99.9908,VALID,0.0169808,VALID,19.6606,VALID,110,VALID,1.0308,